Stations météo

réclame
Mon MeteoGroup
Kaisersbach-Cronhütte, Allemagne (10747): Température de l'air & dewpoint: 12.02.2019 17:00:00 - 18.02.2019 17:00:00 (CET)Kaisersbach-Cronhütte, Allemagne (10747): Température de l'air 5cm & Température de l'air -5cm: 12.02.2019 17:00:00 - 18.02.2019 17:00:00 (CET)Kaisersbach-Cronhütte, Allemagne (10747): Température de l'air -20cm & Température de l'air -100cm: 12.02.2019 17:00:00 - 18.02.2019 17:00:00 (CET)Kaisersbach-Cronhütte, Allemagne (10747): Vitesse du vent & gusts: 12.02.2019 17:00:00 - 18.02.2019 17:00:00 (CET)Kaisersbach-Cronhütte, Allemagne (10747): Direction du vent: 12.02.2019 17:00:00 - 18.02.2019 17:00:00 (CET)Kaisersbach-Cronhütte, Allemagne (10747): reduced air pressure: 12.02.2019 17:00:00 - 18.02.2019 17:00:00 (CET)Kaisersbach-Cronhütte, Allemagne (10747): visibility: 12.02.2019 17:00:00 - 18.02.2019 17:00:00 (CET)Kaisersbach-Cronhütte, Allemagne (10747): Ensoleillement: 12.02.2019 17:00:00 - 18.02.2019 17:00:00 (CET)Kaisersbach-Cronhütte, Allemagne (10747): Quantités de précipitations: 12.02.2019 17:00:00 - 18.02.2019 17:00:00 (CET)
Date & Time tt [°C] td [°C] tt 5cm [°C] tt -5cm [°C] tt -20cm [°C] tt -100cm [°C] ff [km/h] ff [knt] fx [km/h] fx [knt] dd ppp [hPa] vv [km] sd [min] rr [mm]
18.02.2019 17:00:00 12,7 -2,7 5,2 8,5 4,7 3,4 4 2 9 5 SSE 1018,4 56 60 0,0
18.02.2019 16:00:00 14,6 -1,5 16,9 10,2 4,1 3,3 5 3 12 6 ESE 1018,3 59 60 0,0
18.02.2019 15:00:00 14,7 -3,9 16,6 9,7 3,2 3,3 5 3 12 6 E 1018,5 61 60 0,0
18.02.2019 14:00:00 14,9 -2,8 16,2 9,3 2,2 3,3 5 3 12 7 SE 1019,1 43 60 0,0
18.02.2019 13:00:00 13,6 -3,4 15,6 7,7 1,5 3,3 8 4 14 7 ESE 1020,1 33 60 0,0
18.02.2019 12:00:00 12,4 -2,4 14,3 3,9 1,3 3,3 6 3 11 6 ENE 1021,2 39 60 0,0
18.02.2019 11:00:00 9,8 -0,4 10,2 0,1 1,3 3,3 3 1 4 2 ESE 1022,2 37 60 0,0
18.02.2019 10:00:00 3,8 -2,0 5,1 0,1 1,4 3,3 0 0 3 2 N 1023,9 22 60 0,0
18.02.2019 09:00:00 -0,4 -3,6 -1,7 0,0 1,5 3,3 0 0 3 2 W 1024,9 14 59 0,0
18.02.2019 08:00:00 -3,4 -4,6 -5,3 0,1 1,6 3,3 0 0 3 2 N 1025,6 27 0 0,0
18.02.2019 07:00:00 -3,4 -4,6 -6,1 0,2 1,7 3,3 0 0 3 2 N 1025,4 19 0 0,0
18.02.2019 06:00:00 -3,3 -4,6 -5,7 0,2 1,8 3,3 0 0 3 1 N 1025,5 17 0 0,0
18.02.2019 05:00:00 -2,9 -4,4 -5,4 0,3 1,9 3,3 0 0 3 2 N 1025,5 19 0 0,0
18.02.2019 04:00:00 -2,9 -4,2 -5,3 0,4 2,0 3,3 0 0 3 1 N 1025,6 16 0 0,0
18.02.2019 03:00:00 -2,7 -3,9 -5,2 0,4 2,1 3,3 2 1 3 2 WNW 1025,9 15 0 0,0
18.02.2019 02:00:00 -2,7 -4,1 -5,2 0,5 2,3 3,3 0 0 3 1 N 1026,1 3,9 0 0,0
18.02.2019 01:00:00 -2,1 -3,9 -4,6 0,6 2,5 3,3 0 0 2 1 N 1026,2 23 0 0,0
18.02.2019 00:00:00 -1,4 -3,4 -4,0 0,7 2,7 3,3 0 0 3 2 N 1026,0 29 0 0,0
17.02.2019 23:00:00 -0,7 -3,6 -3,8 0,8 3,0 3,3 0 0 4 2 N 1026,1 37 0 0,0
17.02.2019 22:00:00 0,0 -3,4 -3,3 0,9 3,4 3,3 3 2 4 2 NW 1025,9 52 0 0,0
17.02.2019 21:00:00 0,8 -3,3 -2,9 1,3 3,8 3,3 2 1 3 2 NW 1025,7 19 0 0,0
17.02.2019 20:00:00 2,5 -2,5 -2,3 2,3 4,2 3,2 1 1 3 2 WNW 1025,3 23 0 0,0
17.02.2019 19:00:00 4,6 -1,8 -1,1 3,6 4,5 3,2 0 0 5 3 N 1024,7 60 0 0,0
17.02.2019 18:00:00 7,7 -1,7 0,3 5,4 4,6 3,2 2 1 3 2 N 1024,0 5 9 0,0
17.02.2019 17:00:00 13,6 -4,4 4,0 8,0 4,2 3,2 1 1 5 3 WSW 1022,9 70 60 0,0
17.02.2019 16:00:00 16,3 -6,5 15,1 9,6 3,6 3,2 5 3 10 6 SSW 1022,8 52 60 0,0
17.02.2019 15:00:00 16,2 -4,4 16,6 8,9 2,7 3,2 5 3 16 9 S 1023,1 51 60 0,0
17.02.2019 14:00:00 15,4 -5,4 16,4 8,1 1,8 3,2 7 4 16 9 SW 1023,7 47 60 0,0
17.02.2019 13:00:00 14,6 -5,9 15,2 6,6 1,2 3,2 10 5 17 9 S 1024,5 52 60 0,0
17.02.2019 12:00:00 13,5 -2,1 12,7 2,6 1,1 3,2 5 3 8 5 S 1025,3 37 60 0,0
17.02.2019 11:00:00 7,9 2,2 9,0 0,0 1,1 3,2 3 2 5 3 SE 1026,5 27 60 0,0
17.02.2019 10:00:00 3,9 -2,3 6,2 0,0 1,2 3,2 1 1 2 1 SE 1027,5 16 60 0,0
17.02.2019 09:00:00 -0,9 -3,1 -1,3 0,0 1,2 3,2 0 0 3 2 N 1028,9 9 57 0,0
17.02.2019 08:00:00 -3,6 -4,7 -5,8 0,1 1,3 3,2 1 1 3 2 W 1029,4 8 0 0,0
17.02.2019 07:00:00 -3,7 -4,3 -6,0 0,1 1,4 3,2 0 0 3 2 N 1029,3 8 0 0,0
17.02.2019 06:00:00 -3,6 -4,4 -6,1 0,2 1,5 3,2 0 0 2 1 N 1029,3 10 0 0,0
17.02.2019 05:00:00 -3,1 -4,0 -5,4 0,3 1,6 3,2 2 1 3 2 NW 1029,2 10 0 0,0
17.02.2019 04:00:00 -3,3 -4,2 -5,1 0,3 1,7 3,2 3 2 4 2 WNW 1029,3 11 0 0,0
17.02.2019 03:00:00 -3,0 -3,8 -5,2 0,4 1,8 3,2 0 0 3 1 N 1029,6 12 0 0,0
17.02.2019 02:00:00 -2,7 -4,3 -4,6 0,4 1,9 3,2 0 0 3 1 N 1029,8 20 0 0,0
17.02.2019 01:00:00 -2,4 -4,0 -4,5 0,5 2,1 3,2 0 0 2 1 N 1030,0 23 0 0,0
17.02.2019 00:00:00 -2,2 -3,8 -4,3 0,6 2,3 3,1 0 0 3 2 N 1030,0 26 0 0,0
16.02.2019 23:00:00 -1,7 -3,5 -4,1 0,6 2,5 3,1 0 0 3 1 N 1030,2 32 0 0,0
16.02.2019 22:00:00 -0,7 -3,2 -3,5 0,7 2,9 3,1 2 1 3 2 NW 1030,3 30 0 0,0
16.02.2019 21:00:00 0,6 -2,4 -3,1 0,9 3,2 3,1 2 1 3 2 WNW 1030,0 30 0 0,0
16.02.2019 20:00:00 2,1 -2,0 -2,5 1,8 3,6 3,1 2 1 4 2 NW 1029,9 14 0 0,0
16.02.2019 19:00:00 4,1 -1,2 -1,6 3,0 3,9 3,1 3 2 4 2 NW 1029,6 40 0 0,0
16.02.2019 18:00:00 7,3 -2,2 0,3 4,7 4,0 3,1 2 1 4 2 NW 1028,4 58 8 0,0
16.02.2019 17:00:00 12,7 -2,8 4,0 7,1 3,6 3,1 2 1 5 3 W 1027,2 59 60 0,0
16.02.2019 16:00:00 15,3 -4,8 16,5 8,9 2,9 3,1 4 2 6 3 ESE 1026,9 57 60 0,0
16.02.2019 15:00:00 15,0 -5,5 17,0 7,9 2,0 3,1 3 2 11 6 ESE 1027,2 44 60 0,0
16.02.2019 14:00:00 14,4 -4,5 15,3 6,7 1,2 3,1 6 3 13 7 SSW 1027,7 34 60 0,0
16.02.2019 13:00:00 13,2 -3,6 14,8 4,7 0,9 3,1 8 5 13 7 WSW 1028,3 40 60 0,0
16.02.2019 12:00:00 12,0 -1,9 11,3 0,0 0,8 3,1 6 3 11 6 SW 1029,1 31 60 0,0
16.02.2019 11:00:00 8,1 -2,0 8,5 0,0 0,9 3,1 4 2 5 3 SE 1029,8 28 60 0,0
16.02.2019 10:00:00 2,2 -2,9 4,0 -0,1 0,9 3,1 2 1 4 2 W 1031,3 36 60 0,0
16.02.2019 09:00:00 -1,5 -4,1 -1,8 -0,2 1,0 3,1 0 0 3 2 N 1032,3 25 55 0,0
16.02.2019 08:00:00 -4,4 -5,4 -6,6 0,0 1,0 3,1 0 0 3 2 N 1032,9 22 0 0,0
16.02.2019 07:00:00 -4,1 -5,0 -6,6 0,1 1,1 3,1 2 1 3 2 WNW 1032,5 26 0 0,0
16.02.2019 06:00:00 -3,6 -4,8 -6,5 0,1 1,2 3,1 0 0 3 2 N 1032,2 29 0 0,0
16.02.2019 05:00:00 -3,7 -4,6 -6,1 0,2 1,3 3,1 3 1 3 2 NW 1032,2 32 0 0,0
16.02.2019 04:00:00 -3,0 -4,2 -5,7 0,2 1,3 3,1 3 2 4 2 WNW 1032,1 36 0 0,0
16.02.2019 03:00:00 -3,1 -4,2 -5,5 0,3 1,4 3,1 2 1 3 2 WNW 1032,5 28 0 0,0
16.02.2019 02:00:00 -2,5 -3,9 -4,9 0,3 1,6 3,1 0 0 3 2 N 1032,7 34 0 0,0
16.02.2019 01:00:00 -2,6 -3,8 -4,6 0,4 1,7 3,1 2 1 3 2 NW 1032,9 32 0 0,0
16.02.2019 00:00:00 -1,8 -3,3 -4,2 0,4 1,8 3,1 2 1 3 2 NNW 1032,9 31 0 0,0
15.02.2019 23:00:00 -1,1 -3,3 -4,0 0,5 2,0 3,1 0 0 3 2 N 1032,8 40 0 0,0
15.02.2019 22:00:00 0,1 -2,4 -3,4 0,6 2,3 3,1 2 1 4 2 NW 1033,0 42 0 0,0
15.02.2019 21:00:00 1,8 -1,8 -2,6 0,7 2,6 3,0 3 2 6 3 WNW 1032,8 40 0 0,0
15.02.2019 20:00:00 3,3 -2,2 -2,2 1,3 3,0 3,0 3 1 4 2 SE 1032,7 57 0 0,0
15.02.2019 19:00:00 4,8 -2,3 -1,2 2,5 3,2 3,0 3 1 13 7 ESE 1032,7 70 0 0,0
15.02.2019 18:00:00 10,5 -4,3 6,6 4,1 3,2 3,0 10 5 17 9 ESE 1031,5 70 8 0,0
15.02.2019 17:00:00 12,5 -4,2 7,8 6,0 3,0 3,0 8 5 24 13 ESE 1031,1 70 60 0,0
15.02.2019 16:00:00 13,6 -4,6 13,8 7,6 2,3 3,0 13 7 25 13 ESE 1031,1 52 60 0,0
15.02.2019 15:00:00 14,1 -4,5 14,7 6,9 1,5 3,0 11 6 28 15 ESE 1031,3 60 60 0,0
15.02.2019 14:00:00 14,0 -4,0 14,9 5,9 0,8 3,0 12 7 29 16 SE 1031,9 70 60 0,0
15.02.2019 13:00:00 13,0 -1,6 14,8 4,0 0,5 3,0 10 6 23 12 E 1032,8 62 60 0,0
15.02.2019 12:00:00 11,2 -2,8 12,2 0,0 0,5 3,0 10 5 18 10 ESE 1033,8 46 60 0,0
15.02.2019 11:00:00 8,6 -3,5 8,3 0,0 0,5 3,0 9 5 11 6 ENE 1034,7 46 60 0,0
15.02.2019 10:00:00 4,4 -1,5 5,1 -0,1 0,6 3,0 0 0 3 2 N 1035,6 42 60 0,0
15.02.2019 09:00:00 -0,6 -3,5 -1,2 -0,1 0,6 3,0 3 1 5 3 WNW 1036,9 27 54 0,0
15.02.2019 08:00:00 -2,6 -3,6 -5,0 0,0 0,6 3,0 3 1 4 2 WNW 1037,2 21 0 0,0
15.02.2019 07:00:00 -2,8 -3,8 -5,4 0,0 0,6 3,0 3 1 3 2 WNW 1037,2 23 0 0,0
15.02.2019 06:00:00 -3,1 -4,1 -5,5 0,0 0,7 3,0 3 2 4 2 NW 1037,2 19 0 0,0
15.02.2019 05:00:00 -3,1 -4,1 -5,4 0,1 0,7 3,0 0 0 4 2 N 1037,0 20 0 0,0
15.02.2019 04:00:00 -3,0 -4,1 -5,1 0,1 0,7 3,0 0 0 3 2 N 1037,1 22 0 0,0
15.02.2019 03:00:00 -2,4 -3,7 -4,2 0,1 0,7 3,0 0 0 4 2 N 1037,4 23 0 0,0
15.02.2019 02:00:00 -2,5 -4,0 -4,4 0,1 0,8 3,0 0 0 4 2 N 1038,0 25 0 0,0
15.02.2019 01:00:00 -2,4 -4,0 -4,1 0,2 0,8 3,0 2 1 3 1 NNW 1038,2 28 0 0,0
15.02.2019 00:00:00 -1,9 -3,9 -3,8 0,2 0,8 3,0 0 0 4 2 N 1038,1 33 0 0,0
14.02.2019 23:00:00 -1,4 -3,3 -3,6 0,2 0,9 3,0 2 1 3 1 WNW 1038,1 34 0 0,0
14.02.2019 22:00:00 -0,9 -3,1 -3,0 0,2 1,0 3,0 2 1 3 2 NNW 1037,9 46 0 0,0
14.02.2019 21:00:00 0,9 -2,9 -2,8 0,3 1,1 3,0 3 2 5 3 WNW 1037,6 48 0 0,0
14.02.2019 20:00:00 1,3 -2,5 -2,5 0,3 1,2 3,0 2 1 4 2 WNW 1037,9 70 0 0,0
14.02.2019 19:00:00 2,3 -3,4 -1,7 0,3 1,4 3,0 3 2 4 2 NW 1037,5 70 0 0,0
14.02.2019 18:00:00 4,7 -3,9 -1,2 1,4 1,4 3,0 0 0 4 2 N 1036,5 70 6 0,0
14.02.2019 17:00:00 8,1 -5,6 1,9 2,9 1,1 3,0 4 2 10 5 E 1035,9 70 60 0,0
14.02.2019 16:00:00 10,6 -5,2 10,7 3,8 0,7 3,0 6 3 8 5 ENE 1035,3 70 60 0,0
14.02.2019 15:00:00 11,4 -9,5 11,9 2,0 0,5 3,0 5 3 10 5 E 1035,3 70 54 0,0
14.02.2019 14:00:00 9,4 -3,3 9,4 0,3 0,4 3,0 5 3 6 4 ENE 1036,3 70 1 0,0
14.02.2019 13:00:00 9,2 -3,0 7,2 0,0 0,5 3,0 0 0 8 4 N 1036,9 70 12 0,0
14.02.2019 12:00:00 7,9 -0,3 7,3 0,0 0,5 3,0 5 3 8 4 ENE 1037,6 65 57 0,0
14.02.2019 11:00:00 6,3 1,0 8,5 -0,1 0,5 3,0 0 0 3 2 N 1038,1 20 49 0,0
14.02.2019 10:00:00 -0,3 -3,0 0,8 -0,1 0,5 3,0 0 0 3 2 N 1039,7 13 43 0,0
14.02.2019 09:00:00 -3,0 -4,1 -2,3 -0,3 0,5 3,0 3 2 4 2 W 1040,2 14 8 0,0
14.02.2019 08:00:00 -4,5 -5,3 -6,3 -0,2 0,5 3,0 0 0 4 2 N 1040,2 12 0 0,0
14.02.2019 07:00:00 -4,2 -5,0 -6,1 0,0 0,6 3,0 0 0 3 1 NNW 1039,7 14 0 0,0
14.02.2019 06:00:00 -4,1 -4,9 -5,5 0,0 0,6 3,0 1 1 3 1 NNE 1039,6 13 0 0,0
14.02.2019 05:00:00 -4,0 -4,7 -6,3 0,0 0,6 3,0 0 0 3 1 N 1039,4 14 0 0,0
14.02.2019 04:00:00 -3,9 -5,0 -5,6 0,1 0,6 3,0 0 0 3 2 N 1039,0 19 0 0,0
14.02.2019 03:00:00 -3,8 -4,5 -5,8 0,1 0,7 3,0 1 1 2 1 ENE 1039,3 17 0 0,0
14.02.2019 02:00:00 -3,5 -4,3 -5,8 0,1 0,7 3,0 0 0 3 1 N 1039,4 17 0 0,0
14.02.2019 01:00:00 -3,3 -4,2 -5,6 0,2 0,8 3,0 0 0 3 2 E 1039,7 21 0 0,0
14.02.2019 00:00:00 -2,9 -3,9 -5,2 0,2 0,9 3,0 0 0 3 2 N 1039,3 22 0 0,0
13.02.2019 23:00:00 -2,4 -3,6 -4,1 0,2 0,9 3,0 0 0 4 2 N 1039,0 17 0 0,0
13.02.2019 22:00:00 -2,4 -3,5 -4,5 0,3 1,1 3,0 0 0 3 2 N 1038,9 30 0 0,0
13.02.2019 21:00:00 -1,4 -3,4 -3,8 0,4 1,3 3,0 3 2 4 2 NW 1038,9 34 0 0,0
13.02.2019 20:00:00 -0,1 -2,5 -2,9 0,5 1,6 3,0 0 0 3 2 N 1038,8 48 0 0,0
13.02.2019 19:00:00 1,2 -2,0 -2,2 1,2 1,9 3,0 0 0 3 2 N 1038,5 70 0 0,0
13.02.2019 18:00:00 3,4 -0,4 -0,9 2,7 2,1 3,0 0 0 3 2 N 1037,6 66 6 0,0
13.02.2019 17:00:00 6,9 -2,3 2,1 4,6 2,1 3,0 0 0 9 5 N 1036,9 70 36 0,0
13.02.2019 16:00:00 8,3 -4,3 9,0 5,9 1,8 3,0 5 3 10 5 SSE 1036,4 67 60 0,0
13.02.2019 15:00:00 8,7 -4,0 9,2 4,9 1,2 3,0 3 1 10 6 S 1036,4 62 60 0,0
13.02.2019 14:00:00 7,4 -3,3 8,7 3,9 0,6 3,0 4 2 11 6 SE 1037,0 48 60 0,0
13.02.2019 13:00:00 6,8 -3,2 7,9 2,5 0,4 3,0 3 2 11 6 SSE 1037,5 52 60 0,0
13.02.2019 12:00:00 5,3 -3,6 7,7 0,0 0,4 3,0 5 3 8 5 E 1038,5 49 60 0,0
13.02.2019 11:00:00 3,7 -3,9 4,9 0,0 0,4 3,0 3 2 6 3 E 1038,8 45 60 0,0
13.02.2019 10:00:00 0,6 -3,2 2,9 0,0 0,4 3,0 3 1 4 2 ESE 1039,5 22 60 0,0
13.02.2019 09:00:00 -2,2 -3,5 -2,8 0,0 0,4 3,0 1 1 4 2 SE 1039,8 16 50 0,0
13.02.2019 08:00:00 -4,0 -4,6 -6,3 0,0 0,4 3,0 2 1 3 1 NW 1040,2 13 0 0,0
13.02.2019 07:00:00 -3,8 -4,3 -6,2 0,0 0,4 3,0 2 1 3 2 NE 1039,7 11 0 0,0
13.02.2019 06:00:00 -3,3 -3,9 -5,5 0,0 0,4 3,0 0 0 3 1 N 1039,8 17 0 0,0
13.02.2019 05:00:00 -3,2 -3,8 -5,4 0,1 0,4 3,0 0 0 3 2 N 1040,1 11 0 0,0
13.02.2019 04:00:00 -3,0 -3,4 -5,6 0,1 0,4 3,0 2 1 3 2 NNW 1039,6 11 0 0,0
13.02.2019 03:00:00 -2,5 -3,1 -5,1 0,1 0,4 3,0 0 0 5 3 N 1039,4 14 0 0,0
13.02.2019 02:00:00 -2,2 -3,1 -3,7 0,1 0,4 3,0 4 2 5 3 SSE 1039,1 17 0 0,0
13.02.2019 01:00:00 -1,6 -2,5 -4,0 0,1 0,4 3,0 2 1 6 3 NE 1039,0 16 0 0,0
13.02.2019 00:00:00 -0,2 -1,6 -1,4 0,1 0,4 3,0 0 0 8 4 N 1039,1 31 0 0,0
12.02.2019 23:00:00 0,0 -1,5 -0,6 0,1 0,4 3,0 2 1 7 4 W 1038,9 33 0 0,0
12.02.2019 22:00:00 0,9 -2,0 -0,3 0,1 0,4 3,0 5 3 8 5 WSW 1038,4 37 0 0,0
12.02.2019 21:00:00 1,0 -2,1 -0,1 0,1 0,4 3,0 4 2 6 4 W 1038,5 39 0 0,0
12.02.2019 20:00:00 0,7 -1,7 -0,5 0,0 0,5 3,0 3 1 4 2 SW 1038,1 46 0 0,0
12.02.2019 19:00:00 1,0 -1,5 -0,2 0,2 0,5 3,0 2 1 10 5 SW 1038,0 55 0 0,0
12.02.2019 18:00:00 2,0 -2,5 0,7 0,5 0,6 3,0 5 3 16 9 W 1036,9 60 0 0,0
12.02.2019 17:00:00 2,5 -2,4 2,1 1,2 0,5 3,0 8 4 20 11 W 1036,2 52 11 0,0

tt = Température de l'air
td = dewpoint
tt 5cm = Température de l'air 5cm
tt -5cm = Température de l'air -5cm
tt -20cm = Température de l'air -20cm
tt -100cm = Température de l'air -100cm
ff = Vitesse du vent
fx = gusts
dd = Direction du vent
ppp = reduced air pressure
vv = visibility
sd = Ensoleillement
rr = Quantités de précipitations

stations d'obs. à proximité